Weather History for KAXN - January, 2013

Change the Weather History Date:

Friday, January 25, 2013

  Actual Average Record
Temperature  
Mean Temperature 5 °F -  
Max Temperature 15 °F 17 °F 52 °F (1973)
Min Temperature -6 °F -1 °F -27 °F (1997)
Degree Days  
Heating Degree Days 60    
Moisture  
Dew Point -3 °F    
Average Humidity 71    
Maximum Humidity 83    
Minimum Humidity 66    
Precipitation  
Precipitation 0.00 in - - ()
Sea Level Pressure  
Sea Level Pressure 30.11 in    
Wind  
Wind Speed 18 mph (WNW)    
Max Wind Speed 28 mph    
Max Gust Speed 37 mph    
Visibility 8 miles    
Events Snow    
Averages and records for this station are not official NWS values.
T = Trace of Precipitation, MM = Missing Value Source: NWS Daily Summary

Daily Weather History Graph

Daily Weather History Graph

Search for Another Location

Airport or City:

Trip Planner

Search our weather history database for the weather conditions in past years. The results will help you decide how hot, cold, wet, or windy it might be!

Date:

Astronomy

Jan. 25, 2013 Rise Set
Actual Time 7:50 AM CST 5:17 PM CST
Civil Twilight 7:18 AM CST 5:50 PM CST
Nautical Twilight 6:42 AM CST 6:26 PM CST
Astronomical Twilight 6:07 AM CST 7:01 PM CST
Moon 4:15 PM CST (1/25) 6:31 AM CST (1/25)
Length of Visible Light 10h 31m
Length of Day
9h 26m
Waxing Gibbous, 98% of the Moon is Illuminated
Jan 25
Waxing Gibbous
Jan 26
Full
Feb 3
Last Quarter
Feb 10
New
Feb 17
First Quarter

Hourly Weather History & Observations

Time (CST) Temp. Windchill Dew Point Humidity Pressure Visibility Wind Dir Wind Speed Gust Speed Precip Events Conditions
12:53 AM 10.9 °F -3.4 °F 3.0 °F 70% 30.10 in 10.0 mi SSW 11.5 mph - N/A   Mostly Cloudy
1:53 AM 10.9 °F -7.0 °F 3.9 °F 73% 30.07 in 10.0 mi South 18.4 mph - N/A   Overcast
2:53 AM 12.0 °F -4.0 °F 3.9 °F 70% 30.04 in 10.0 mi SW 15.0 mph - N/A   Overcast
3:53 AM 12.0 °F -4.0 °F 5.0 °F 73% 30.02 in 10.0 mi WSW 15.0 mph - N/A   Overcast
4:53 AM 14.0 °F -0.8 °F 7.0 °F 74% 29.99 in 10.0 mi West 13.8 mph - N/A   Overcast
5:53 AM 15.1 °F -1.6 °F 8.1 °F 74% 29.97 in 9.0 mi WNW 18.4 mph 29.9 mph 0.00 in Snow Light Snow
6:22 AM 14.0 °F -4.7 °F 8.6 °F 79% 29.89 in 4.0 mi WNW 23.0 mph 36.8 mph 0.00 in Snow Light Snow
6:42 AM 10.4 °F -10.7 °F 3.2 °F 73% 29.90 in 9.0 mi NW 26.5 mph 34.5 mph 0.00 in   Overcast
6:53 AM 10.0 °F -10.4 °F 1.9 °F 70% 30.01 in 9.0 mi WNW 24.2 mph 32.2 mph 0.00 in   Mostly Cloudy
7:08 AM 8.6 °F -13.1 °F 1.4 °F 73% 29.91 in 10.0 mi WNW 26.5 mph 31.1 mph N/A   Scattered Clouds
7:41 AM 6.8 °F -15.1 °F -0.4 °F 72% 29.92 in 10.0 mi NW 25.3 mph 29.9 mph N/A   Scattered Clouds
7:53 AM 6.1 °F -14.8 °F -0.9 °F 73% 30.04 in 6.0 mi NW 21.9 mph 32.2 mph N/A   Haze
8:01 AM 5.0 °F -16.7 °F -0.4 °F 78% 29.94 in 2.5 mi NW 23.0 mph 32.2 mph N/A   Haze
8:11 AM 5.0 °F -17.1 °F -2.2 °F 72% 29.94 in 5.0 mi NW 24.2 mph 32.2 mph N/A   Haze
8:24 AM 5.0 °F -15.7 °F -0.4 °F 78% 29.95 in 1.8 mi WNW 20.7 mph 31.1 mph 0.00 in Snow Light Snow
8:36 AM 3.2 °F -19.5 °F -2.2 °F 78% 29.96 in 3.0 mi WNW 24.2 mph 32.2 mph 0.00 in   Haze
8:53 AM 3.9 °F -19.8 °F -2.9 °F 73% 30.08 in 2.5 mi NW 27.6 mph 33.4 mph 0.00 in   Haze
9:11 AM 3.2 °F -18.6 °F -4.0 °F 72% 29.99 in 4.0 mi NW 21.9 mph 29.9 mph N/A   Haze
9:53 AM 3.0 °F -18.8 °F -4.0 °F 73% 30.12 in 5.0 mi NW 21.9 mph 32.2 mph N/A   Haze
10:31 AM 3.2 °F -19.5 °F -5.8 °F 66% 30.03 in 9.0 mi NW 24.2 mph - N/A   Scattered Clouds
10:53 AM 1.9 °F -20.7 °F -5.1 °F 72% 30.15 in 3.0 mi NW 23.0 mph - N/A   Haze
11:21 AM 3.2 °F -19.0 °F -5.8 °F 66% 30.05 in 10.0 mi NW 23.0 mph 29.9 mph N/A   Scattered Clouds
11:32 AM 3.2 °F -18.6 °F -5.8 °F 66% 30.05 in 10.0 mi NW 21.9 mph 28.8 mph N/A   Mostly Cloudy
11:53 AM 3.0 °F -19.7 °F -6.0 °F 66% 30.17 in 10.0 mi NW 24.2 mph 27.6 mph N/A   Mostly Cloudy
12:20 PM 3.2 °F -18.6 °F -5.8 °F 66% 30.07 in 10.0 mi NW 21.9 mph 27.6 mph N/A   Scattered Clouds
12:53 PM 3.9 °F -17.1 °F -5.1 °F 66% 30.18 in 10.0 mi NW 20.7 mph 24.2 mph N/A   Partly Cloudy
1:53 PM 3.9 °F -15.6 °F -5.1 °F 66% 30.20 in 10.0 mi NW 17.3 mph - N/A   Clear
2:53 PM 3.0 °F -16.7 °F -6.0 °F 66% 30.23 in 10.0 mi WNW 17.3 mph - N/A   Partly Cloudy
3:53 PM 3.0 °F -16.7 °F -6.0 °F 66% 30.25 in 10.0 mi NW 17.3 mph - N/A   Clear
4:53 PM 1.9 °F -16.2 °F -7.1 °F 66% 30.26 in 10.0 mi NNW 13.8 mph - N/A   Clear
5:53 PM 1.0 °F -14.0 °F -8.0 °F 66% 30.28 in 10.0 mi NNW 9.2 mph - N/A   Clear
6:53 PM -0.0 °F -18.0 °F -8.0 °F 69% 30.31 in 10.0 mi NW 12.7 mph - N/A   Clear
7:53 PM -0.9 °F -15.3 °F -9.0 °F 69% 30.34 in 10.0 mi NNW 8.1 mph - N/A   Clear
8:53 PM -2.0 °F -12.2 °F -9.0 °F 72% 30.35 in 10.0 mi WNW 4.6 mph - N/A   Clear
9:53 PM -4.0 °F -16.3 °F -9.9 °F 76% 30.36 in 10.0 mi WNW 5.8 mph - N/A   Clear
10:53 PM -5.1 °F - -9.9 °F 80% 30.37 in 10.0 mi Calm Calm - N/A   Clear
11:53 PM -6.0 °F -14.7 °F -9.9 °F 83% 30.40 in 10.0 mi NNW 3.5 mph - N/A   Clear